Погода в Новопетровском

Россия / Тульская область     53°13′21″N   37°48′31″E
темп.,
°C
ветер,
м/с
пор.,
м/с
влажн.,
%
обл.,
%
осадки,
мм/ч
давл.,
гПа
погр.,
м
13 апреля, вт
вт1300:00+11вюв4137485 0.0 1025232
03:00+9юв4108195 0.0 1025150
06:00+8юв3780100 0.0 1026108
09:00+12юв51164100 0.0 1025346
12:00+18ююв694487 0.0 1024875
15:00+20юв71031100 0.0 10231841
18:00+18юв511400 0.0 1022362
21:00+13юв512525 0.0 1022235
14 апреля, ср
ср1400:00+11юв5125983 0.0 1022280
03:00+9юв4970100 0.0 1022158
06:00+8юв3773100 0.0 1021122
09:00+12юв4859100 0.0 1021290
12:00+17юв68415 0.0 1019968
15:00+18ююв6829100 0.0 10172103
18:00+17ююв353989 0.0 1017136
21:00+13ю225178 0.0 101814
15 апреля, чт
чт1500:00+11ссв1157100 0.0 101710
03:00+10з116299 0.0 101710
06:00+9ссз1165100 0.0 101710
09:00+12сз1162100 0.0 1017131
12:00+15всв2150100 0.0 1016549
15:00+17зсз1247100 0.0 10161491
18:00+15сз3458100 0.1 1014131
21:00+14ссв3459100 0.1 101458
16 апреля, пт
пт1600:00+12с2264100 0.1 101426
03:00+11ююз2375100 0.1 101459
06:00+11в1177100 0.0 101410
09:00+13юв356691 0.0 1015403
12:00+16вюв345172 0.0 10161203
15:00+18в5749100 0.9 10151630
18:00+17всв71154100 1.3 1015652
21:00+13всв61470100 3.5 1017499
17 апреля, сб
сб1700:00+12всв7147696 2.2 1019528
03:00+9св81487100 2.3 1020489
06:00+7св8158942 0.0 1021487
09:00+9всв9137421 0.0 1022637
12:00+12всв1012545 0.0 10241131
15:00+13всв911425 0.0 10251541
18:00+11всв811440 0.0 10261334
21:00+8всв713510 0.0 1029624